Погода в Поколбине

Австралия     32°48′21″S   151°16′45″E
темп.,
°C
ветер,
м/с
пор.,
м/с
влажн.,
%
обл.,
%
осадки,
мм/ч
давл.,
гПа
погр.,
м
18 января, вт
вт1823:00+22ююз2396100 1.8 101263
02:00+22юз1193100 0.0 101015
05:00+22ю1191100 0.0 101018
08:00+22ю1188100 0.0 101229
11:00+24ююз1372100 0.0 1013472
14:00+24ю2373100 0.0 1012672
17:00+21ююв2497100 1.1 1012265
20:00+20юв1398100 0.5 1013120
19 января, ср
ср1923:00+19ююв1298100 0.6 101490
02:00+20ююв1398100 1.1 1013180
05:00+19ююв31096100 4.6 1014754
08:00+19ю31196100 1.0 1017800
11:00+18ю31097100 3.4 1018963
14:00+19ююв41188100 1.4 10191037
17:00+18ююв41190100 2.4 1019985
20:00+18ююв41187100 0.6 1021905
20 января, чт
чт2023:00+17ююв3119030 1.0 1022816
02:00+16ююв312880 0.3 1022623
05:00+16ююв3109216 0.8 1022482
08:00
11:00+23юв595625 1.6 10241659
14:00+24юв694990 0.1 10242022
17:00
20:00+18юв410781 0.3 1026806
21 января, пт
пт2123:00+17ююв2987100 0.7 1027431
02:00+16ююв289448 0.8 1026350
05:00+15ююв2896100 1.2 1025215
08:00+18юв3990100 0.3 1026705
11:00+22юв486849 1.1 10261395
14:00+21юв487154 0.7 10251070
17:00+24юв57504 0.8 10241888
20:00+19юв38776 0.1 1025411
22 января, сб
сб2223:00+15ю229257 0.1 102550
02:00+15ююз229470 0.0 102443
05:00+17ююв2795100 0.6 1022235
08:00+18ююв269298 0.6 1023275
11:00+24юв355056 0.9 10221838
14:00+22юв365747 0.4 10211161
17:00+23юв455480 0.4 10191693
20:00+19юв26750 0.1 1020227